BON139 FAGG-FACT

Flight info

Callsign BON139
Flight time 0h 42m
Altitude 28000
Route APGUP DCT ETBUL UQ49 ESRUK UQ51 GETEN GETEN1B
Aircraft A20N/M-SDE2E3FGHIRWXY/LB1

Departure

Time 2026-04-29 17:17
Airport George Airport (FAGG)

Arrival

Time 2026-04-29 17:59
Airport Cape Town International Airport (FACT)
Time Latitude Longitude Altitude Speed Heading
2026-04-29 17:04 -34.00230 22.38166 638 ft 0 kts 40°
2026-04-29 17:10 -34.00239 22.38158 641 ft 4 kts 43°
2026-04-29 17:10 -34.00257 22.38134 638 ft 4 kts 58°
2026-04-29 17:10 -34.00266 22.38106 638 ft 4 kts 110°
2026-04-29 17:10 -34.00262 22.38097 637 ft 1 kts 134°
2026-04-29 17:12 -34.00266 22.38102 639 ft 3 kts 134°
2026-04-29 17:12 -34.00287 22.38128 639 ft 6 kts 134°
2026-04-29 17:12 -34.00312 22.38138 638 ft 6 kts 191°
2026-04-29 17:13 -34.00333 22.38055 638 ft 12 kts 269°
2026-04-29 17:13 -34.00337 22.37938 636 ft 16 kts 266°
2026-04-29 17:13 -34.00342 22.37821 634 ft 14 kts 268°
2026-04-29 17:13 -34.00345 22.37715 636 ft 14 kts 268°
2026-04-29 17:14 -34.00348 22.37575 636 ft 19 kts 267°
2026-04-29 17:14 -34.00354 22.37420 633 ft 19 kts 268°
2026-04-29 17:14 -34.00360 22.37243 632 ft 23 kts 267°
2026-04-29 17:14 -34.00368 22.37042 629 ft 20 kts 264°
2026-04-29 17:15 -34.00412 22.36895 624 ft 19 kts 232°
2026-04-29 17:15 -34.00466 22.36831 623 ft 2 kts 222°
2026-04-29 17:15 -34.00491 22.36804 629 ft 8 kts 219°
2026-04-29 17:15 -34.00559 22.36781 620 ft 13 kts 173°
2026-04-29 17:16 -34.00583 22.36838 624 ft 0 kts 88°
2026-04-29 17:16 -34.00583 22.36848 633 ft 5 kts 88°
2026-04-29 17:16 -34.00574 22.37223 633 ft 84 kts 88°
2026-04-29 17:17 -34.00541 22.38195 650 ft 144 kts 88°
2026-04-29 17:17 -34.00516 22.39411 1242 ft 145 kts 89°
2026-04-29 17:17 -34.00533 22.40625 1966 ft 143 kts 92°
2026-04-29 17:17 -34.00622 22.41780 2737 ft 137 kts 103°
2026-04-29 17:18 -34.01183 22.42749 3127 ft 153 kts 149°
2026-04-29 17:18 -34.02275 22.42942 3514 ft 174 kts 193°
2026-04-29 17:18 -34.03317 22.42080 3921 ft 197 kts 234°
2026-04-29 17:18 -34.03735 22.40481 4354 ft 213 kts 271°
2026-04-29 17:19 -34.03255 22.38773 4985 ft 221 kts 308°
2026-04-29 17:19 -34.02084 22.37523 5505 ft 239 kts 322°
2026-04-29 17:19 -34.01042 22.35858 6095 ft 263 kts 294°
2026-04-29 17:19 -34.00622 22.33666 6986 ft 273 kts 278°
2026-04-29 17:20 -34.00537 22.31361 7996 ft 279 kts 272°
2026-04-29 17:20 -34.00563 22.29007 8989 ft 283 kts 271°
2026-04-29 17:20 -34.00604 22.26622 9982 ft 287 kts 271°
2026-04-29 17:20 -34.00629 22.24192 10821 ft 297 kts 271°
2026-04-29 17:21 -34.00631 22.21614 11280 ft 318 kts 271°
2026-04-29 17:21 -34.00620 22.18867 11776 ft 335 kts 271°
2026-04-29 17:21 -34.00605 22.16048 12691 ft 337 kts 271°
2026-04-29 17:21 -34.00588 22.13215 13592 ft 339 kts 271°
2026-04-29 17:22 -34.00571 22.10372 14462 ft 341 kts 271°
2026-04-29 17:22 -34.00555 22.07502 15267 ft 344 kts 271°
2026-04-29 17:22 -34.00538 22.04617 16089 ft 346 kts 271°
2026-04-29 17:22 -34.00520 22.01711 16899 ft 347 kts 271°
2026-04-29 17:23 -34.00500 21.98795 17688 ft 349 kts 271°
2026-04-29 17:23 -34.00478 21.95864 18432 ft 351 kts 271°
2026-04-29 17:23 -34.00455 21.92914 19195 ft 352 kts 271°
2026-04-29 17:23 -34.00432 21.89959 19944 ft 353 kts 271°
2026-04-29 17:24 -34.00407 21.87001 20679 ft 354 kts 271°
2026-04-29 17:24 -34.00382 21.84026 21419 ft 355 kts 271°
2026-04-29 17:24 -34.00356 21.81044 22114 ft 356 kts 271°
2026-04-29 17:24 -34.00329 21.78056 22815 ft 357 kts 271°
2026-04-29 17:25 -34.00301 21.75062 23462 ft 358 kts 271°
2026-04-29 17:25 -34.00274 21.72061 24128 ft 359 kts 271°
2026-04-29 17:25 -34.00245 21.69044 24689 ft 361 kts 271°
2026-04-29 17:25 -34.00216 21.66011 25300 ft 362 kts 271°
2026-04-29 17:26 -34.00187 21.62969 25827 ft 364 kts 271°
2026-04-29 17:26 -34.00157 21.59919 26377 ft 364 kts 271°
2026-04-29 17:26 -34.00126 21.56853 26850 ft 367 kts 271°
2026-04-29 17:26 -34.00092 21.53775 27314 ft 369 kts 272°
2026-04-29 17:27 -34.00058 21.50686 27786 ft 369 kts 272°
2026-04-29 17:27 -34.00024 21.47583 28096 ft 371 kts 272°
2026-04-29 17:27 -33.99954 21.41387 28183 ft 367 kts 272°
2026-04-29 17:28 -33.99881 21.35294 28178 ft 365 kts 272°
2026-04-29 17:28 -33.99805 21.29181 28176 ft 363 kts 272°
2026-04-29 17:29 -33.99735 21.23056 28171 ft 363 kts 273°
2026-04-29 17:29 -33.99652 21.17952 28174 ft 367 kts 272°
2026-04-29 17:30 -33.99548 21.10783 28174 ft 366 kts 272°
2026-04-29 17:30 -33.99451 21.04658 28173 ft 369 kts 273°
2026-04-29 17:31 -33.99359 20.98495 28169 ft 368 kts 273°
2026-04-29 17:31 -33.99261 20.92324 28171 ft 369 kts 273°
2026-04-29 17:32 -33.99153 20.86136 28171 ft 368 kts 272°
2026-04-29 17:32 -33.99056 20.79961 28167 ft 371 kts 274°
2026-04-29 17:33 -33.98930 20.73755 28166 ft 370 kts 273°
2026-04-29 17:33 -33.98821 20.67545 28167 ft 371 kts 273°
2026-04-29 17:34 -33.98711 20.61287 28161 ft 373 kts 273°
2026-04-29 17:34 -33.98593 20.55043 28159 ft 374 kts 273°
2026-04-29 17:35 -33.98442 20.45625 28156 ft 376 kts 273°
2026-04-29 17:36 -33.98301 20.39348 28161 ft 375 kts 274°
2026-04-29 17:36 -33.98175 20.33060 28151 ft 377 kts 273°
2026-04-29 17:37 -33.98036 20.26773 28149 ft 376 kts 273°
2026-04-29 17:37 -33.97905 20.20493 28150 ft 377 kts 274°
2026-04-29 17:38 -33.97757 20.14218 27931 ft 377 kts 273°
2026-04-29 17:38 -33.97690 20.11100 27670 ft 371 kts 274°
2026-04-29 17:38 -33.97615 20.07975 27414 ft 375 kts 274°
2026-04-29 17:38 -33.97549 20.04816 27164 ft 377 kts 274°
2026-04-29 17:39 -33.97473 20.01672 26915 ft 373 kts 274°
2026-04-29 17:39 -33.97390 19.98550 26667 ft 376 kts 274°
2026-04-29 17:39 -33.97307 19.95400 26422 ft 376 kts 274°
2026-04-29 17:39 -33.97217 19.92255 26180 ft 376 kts 273°
2026-04-29 17:40 -33.97139 19.89115 25915 ft 376 kts 273°
2026-04-29 17:40 -33.97070 19.85988 25664 ft 373 kts 272°
2026-04-29 17:40 -33.97187 19.82838 25412 ft 379 kts 265°
2026-04-29 17:40 -33.97727 19.79744 25162 ft 378 kts 257°
2026-04-29 17:41 -33.98664 19.76756 24674 ft 385 kts 248°
2026-04-29 17:41 -33.99902 19.73890 24059 ft 383 kts 246°
2026-04-29 17:41 -34.01132 19.71056 23452 ft 379 kts 246°
2026-04-29 17:41 -34.02348 19.68238 22849 ft 378 kts 246°
2026-04-29 17:42 -34.03541 19.65439 22255 ft 371 kts 246°
2026-04-29 17:42 -34.04644 19.62657 21667 ft 365 kts 252°
2026-04-29 17:42 -34.05124 19.60729 21283 ft 359 kts 259°
2026-04-29 17:42 -34.05431 19.57747 20700 ft 357 kts 270°
2026-04-29 17:43 -34.05231 19.54790 20113 ft 353 kts 283°
2026-04-29 17:43 -34.04369 19.51979 19561 ft 364 kts 292°
2026-04-29 17:43 -34.03358 19.49170 18981 ft 366 kts 293°
2026-04-29 17:43 -34.02346 19.46368 18403 ft 362 kts 293°
2026-04-29 17:44 -34.01350 19.43594 17845 ft 359 kts 293°
2026-04-29 17:44 -34.00359 19.40854 17320 ft 353 kts 294°
2026-04-29 17:44 -33.99385 19.38131 16791 ft 356 kts 293°
2026-04-29 17:44 -33.98415 19.35419 16274 ft 348 kts 293°
2026-04-29 17:45 -33.97470 19.32751 15753 ft 346 kts 293°
2026-04-29 17:45 -33.96522 19.30075 15228 ft 347 kts 293°
2026-04-29 17:45 -33.95580 19.27411 14703 ft 344 kts 293°
2026-04-29 17:45 -33.94650 19.24774 14176 ft 342 kts 293°
2026-04-29 17:46 -33.93721 19.22118 13656 ft 344 kts 293°
2026-04-29 17:46 -33.92795 19.19479 13161 ft 340 kts 293°
2026-04-29 17:46 -33.91888 19.16886 12815 ft 331 kts 293°
2026-04-29 17:46 -33.91011 19.14367 12492 ft 322 kts 293°
2026-04-29 17:47 -33.90154 19.11913 12177 ft 314 kts 293°
2026-04-29 17:47 -33.89319 19.09519 11845 ft 307 kts 293°
2026-04-29 17:47 -33.88503 19.07177 11516 ft 300 kts 293°
2026-04-29 17:47 -33.87707 19.04887 11189 ft 294 kts 293°
2026-04-29 17:48 -33.86924 19.02637 10865 ft 289 kts 293°
2026-04-29 17:48 -33.86152 19.00418 10553 ft 289 kts 293°
2026-04-29 17:48 -33.85370 18.98175 10277 ft 290 kts 293°
2026-04-29 17:48 -33.84595 18.95950 10012 ft 288 kts 293°
2026-04-29 17:49 -33.83818 18.93719 9692 ft 289 kts 293°
2026-04-29 17:49 -33.83037 18.91475 9161 ft 293 kts 293°
2026-04-29 17:49 -33.82246 18.89206 8612 ft 296 kts 293°
2026-04-29 17:49 -33.81448 18.86918 8062 ft 298 kts 293°
2026-04-29 17:50 -33.80648 18.84620 7506 ft 299 kts 293°
2026-04-29 17:50 -33.79840 18.82306 6961 ft 301 kts 293°
2026-04-29 17:50 -33.79036 18.80013 6415 ft 302 kts 293°
2026-04-29 17:50 -33.78204 18.77649 5861 ft 303 kts 294°
2026-04-29 17:51 -33.77395 18.75350 5311 ft 303 kts 293°
2026-04-29 17:51 -33.76558 18.72982 4769 ft 303 kts 293°
2026-04-29 17:51 -33.75734 18.70672 4368 ft 298 kts 294°
2026-04-29 17:51 -33.74923 18.68409 4032 ft 292 kts 294°
2026-04-29 17:52 -33.74134 18.66218 3686 ft 287 kts 294°
2026-04-29 17:52 -33.73599 18.64739 3449 ft 284 kts 294°
2026-04-29 17:52 -33.72895 18.61786 3066 ft 274 kts 269°
2026-04-29 17:52 -33.73238 18.59616 2999 ft 258 kts 253°
2026-04-29 17:53 -33.73705 18.57610 2996 ft 242 kts 253°
2026-04-29 17:53 -33.74280 18.55791 2995 ft 225 kts 234°
2026-04-29 17:53 -33.75421 18.54660 3011 ft 204 kts 200°
2026-04-29 17:53 -33.76717 18.54302 2993 ft 181 kts 182°
2026-04-29 17:54 -33.77901 18.54373 2993 ft 161 kts 170°
2026-04-29 17:54 -33.78920 18.54614 2994 ft 136 kts 165°
2026-04-29 17:54 -33.79817 18.54883 2997 ft 131 kts 164°
2026-04-29 17:54 -33.80694 18.55160 2998 ft 130 kts 164°
2026-04-29 17:55 -33.81570 18.55436 2999 ft 130 kts 164°
2026-04-29 17:55 -33.82446 18.55714 2990 ft 131 kts 164°
2026-04-29 17:55 -33.83326 18.55993 2857 ft 130 kts 164°
2026-04-29 17:55 -33.84195 18.56267 2682 ft 128 kts 164°
2026-04-29 17:56 -33.85052 18.56539 2508 ft 127 kts 165°
2026-04-29 17:56 -33.85905 18.56809 2333 ft 126 kts 165°
2026-04-29 17:56 -33.86750 18.57077 2155 ft 125 kts 165°
2026-04-29 17:56 -33.87599 18.57345 2011 ft 128 kts 165°
2026-04-29 17:57 -33.88470 18.57623 2057 ft 135 kts 165°
2026-04-29 17:57 -33.89454 18.57948 1736 ft 146 kts 165°
2026-04-29 17:57 -33.90410 18.58253 1366 ft 141 kts 167°
2026-04-29 17:57 -33.91360 18.58522 1004 ft 137 kts 166°
2026-04-29 17:58 -33.92223 18.58816 891 ft 125 kts 166°
2026-04-29 17:58 -33.93112 18.59105 717 ft 137 kts 168°
2026-04-29 17:58 -33.94004 18.59389 585 ft 129 kts 166°
2026-04-29 17:58 -33.94861 18.59661 415 ft 126 kts 167°
2026-04-29 17:59 -33.95695 18.59926 264 ft 124 kts 167°
2026-04-29 17:59 -33.96517 18.60182 158 ft 118 kts 166°
2026-04-29 17:59 -33.97077 18.60346 155 ft 53 kts 167°
2026-04-29 17:59 -33.97404 18.60447 152 ft 47 kts 166°
2026-04-29 18:00 -33.97709 18.60549 153 ft 44 kts 162°
2026-04-29 18:00 -33.97794 18.60538 154 ft 8 kts 254°
2026-04-29 18:00 -33.97776 18.60449 153 ft 15 kts 285°
2026-04-29 18:00 -33.97745 18.60309 154 ft 6 kts 284°
2026-04-29 18:01 -33.97743 18.60297 154 ft 0 kts 285°
2026-04-29 18:01 -33.97736 18.60271 154 ft 8 kts 287°
2026-04-29 18:01 -33.97698 18.60179 154 ft 16 kts 326°
2026-04-29 18:01 -33.97582 18.60132 154 ft 21 kts 338°
2026-04-29 18:02 -33.97457 18.60069 154 ft 20 kts 345°
2026-04-29 18:02 -33.97317 18.60024 154 ft 19 kts 343°
2026-04-29 18:02 -33.97223 18.59995 154 ft 14 kts 346°
2026-04-29 18:02 -33.97150 18.59973 154 ft 3 kts 346°
2026-04-29 18:03 -33.97139 18.59944 154 ft 6 kts 274°
2026-04-29 18:03 -33.97146 18.59899 154 ft 1 kts 256°
2026-04-29 18:03 -33.97149 18.59884 154 ft 3 kts 256°
2026-04-29 18:03 -33.97150 18.59879 154 ft 0 kts 256°
2026-04-29 18:04 -33.97150 18.59878 154 ft 0 kts 256°